SHI4355 OIMM-LBSF

Flight info

Callsign SHI4355
Flight time N/A
Altitude 34000
Route BOTEK G792 GIRUN B375 BODKA P130 REBLO UM11 DELEL UR317 TBN UW71 TEMEL UM11 ARLAT UW71 IPSAT UM11 ARSUG/N0430F360 UW71 ERKOS UM11 EMLAD UW71 OSDUT UM11 TERME UW71 CRM UM688 EKSUK UL852 NEGEM L852 RITAG Y195 NESAR T555 BGS T228 GAPVO
Aircraft B733/M-SDE2E3FHIRW/S

Departure

Time 2026-04-30 07:38
Airport Mashhad International Airport (OIMM)

Arrival

Time N/A
Airport Sofia Airport (LBSF)
Time Latitude Longitude Altitude Speed Heading
2026-04-30 06:55 36.22891 59.64194 3270 ft 0 kts 269°
2026-04-30 07:27 36.22892 59.64197 3269 ft 0 kts 269°
2026-04-30 07:28 36.22892 59.64208 3270 ft 0 kts 269°
2026-04-30 07:28 36.22892 59.64219 3269 ft 0 kts 269°
2026-04-30 07:28 36.22892 59.64232 3269 ft 0 kts 269°
2026-04-30 07:28 36.22892 59.64249 3269 ft 0 kts 264°
2026-04-30 07:29 36.22897 59.64262 3270 ft 0 kts 239°
2026-04-30 07:29 36.22902 59.64270 3270 ft 0 kts 198°
2026-04-30 07:29 36.22911 59.64273 3270 ft 0 kts 191°
2026-04-30 07:29 36.22922 59.64275 3270 ft 0 kts 168°
2026-04-30 07:30 36.22930 59.64270 3269 ft 0 kts 133°
2026-04-30 07:31 36.22929 59.64272 3269 ft 1 kts 133°
2026-04-30 07:31 36.22906 59.64301 3270 ft 7 kts 134°
2026-04-30 07:32 36.22854 59.64367 3269 ft 13 kts 134°
2026-04-30 07:32 36.22777 59.64468 3269 ft 17 kts 133°
2026-04-30 07:32 36.22698 59.64573 3269 ft 16 kts 133°
2026-04-30 07:32 36.22623 59.64675 3270 ft 15 kts 126°
2026-04-30 07:33 36.22572 59.64792 3270 ft 15 kts 120°
2026-04-30 07:33 36.22511 59.64893 3270 ft 14 kts 131°
2026-04-30 07:33 36.22446 59.64982 3269 ft 13 kts 133°
2026-04-30 07:33 36.22382 59.65065 3270 ft 13 kts 134°
2026-04-30 07:34 36.22319 59.65144 3270 ft 12 kts 135°
2026-04-30 07:34 36.22259 59.65219 3269 ft 12 kts 134°
2026-04-30 07:34 36.22201 59.65293 3269 ft 11 kts 133°
2026-04-30 07:34 36.22148 59.65365 3269 ft 10 kts 127°
2026-04-30 07:35 36.22133 59.65450 3270 ft 10 kts 74°
2026-04-30 07:35 36.22175 59.65517 3269 ft 9 kts 45°
2026-04-30 07:35 36.22224 59.65575 3269 ft 10 kts 41°
2026-04-30 07:35 36.22297 59.65638 3269 ft 13 kts 31°
2026-04-30 07:36 36.22377 59.65681 3269 ft 11 kts 31°
2026-04-30 07:36 36.22432 59.65676 3269 ft 7 kts 318°
2026-04-30 07:36 36.22436 59.65670 3270 ft 1 kts 314°
2026-04-30 07:36 36.22454 59.65648 3269 ft 8 kts 314°
2026-04-30 07:37 36.22594 59.65470 3270 ft 59 kts 314°
2026-04-30 07:37 36.23038 59.64893 3270 ft 124 kts 313°
2026-04-30 07:37 36.23769 59.63942 3270 ft 177 kts 314°
2026-04-30 07:37 36.24694 59.62750 3537 ft 195 kts 314°
2026-04-30 07:38 36.25614 59.61510 4088 ft 199 kts 307°
2026-04-30 07:38 36.26397 59.60084 4590 ft 200 kts 303°
2026-04-30 07:38 36.27201 59.58598 4771 ft 216 kts 304°
2026-04-30 07:38 36.28042 59.56980 4947 ft 235 kts 303°
2026-04-30 07:39 36.28972 59.55192 5190 ft 254 kts 304°
2026-04-30 07:39 36.29968 59.53327 5704 ft 261 kts 306°
2026-04-30 07:39 36.31013 59.51473 6158 ft 271 kts 307°
2026-04-30 07:39 36.32147 59.49466 6527 ft 286 kts 306°
2026-04-30 07:40 36.33287 59.47433 7154 ft 289 kts 305°
2026-04-30 07:40 36.34426 59.45398 7829 ft 290 kts 304°
2026-04-30 07:40 36.35579 59.43330 8429 ft 293 kts 303°
2026-04-30 07:40 36.36735 59.41252 9078 ft 295 kts 303°
2026-04-30 07:41 36.37906 59.39146 9731 ft 297 kts 302°
2026-04-30 07:41 36.39084 59.37027 10284 ft 301 kts 302°
2026-04-30 07:41 36.40322 59.34790 10338 ft 326 kts 302°
2026-04-30 07:41 36.41666 59.32357 10385 ft 350 kts 302°
2026-04-30 07:42 36.43058 59.29850 11036 ft 352 kts 302°
2026-04-30 07:42 36.44414 59.27409 11969 ft 344 kts 301°
2026-04-30 07:42 36.45766 59.24966 12699 ft 344 kts 302°
2026-04-30 07:42 36.47119 59.22518 13309 ft 345 kts 301°
2026-04-30 07:43 36.48481 59.20053 13899 ft 346 kts 301°
2026-04-30 07:43 36.49857 59.17560 14444 ft 349 kts 301°
2026-04-30 07:43 36.51236 59.15060 15008 ft 352 kts 300°
2026-04-30 07:43 36.52634 59.12526 15584 ft 355 kts 301°
2026-04-30 07:44 36.54020 59.10012 16160 ft 356 kts 300°
2026-04-30 07:44 36.55429 59.07449 16689 ft 359 kts 300°
2026-04-30 07:44 36.56848 59.04869 17222 ft 361 kts 300°
2026-04-30 07:44 36.58266 59.02285 17751 ft 364 kts 300°
2026-04-30 07:45 36.59698 58.99674 18239 ft 367 kts 300°
2026-04-30 07:45 36.61138 58.97047 18728 ft 370 kts 300°
2026-04-30 07:45 36.62592 58.94393 19227 ft 372 kts 300°
2026-04-30 07:45 36.64057 58.91717 19723 ft 374 kts 300°
2026-04-30 07:46 36.65545 58.88997 20184 ft 378 kts 300°
2026-04-30 07:46 36.67026 58.86286 20615 ft 381 kts 300°
2026-04-30 07:46 36.68505 58.83575 21037 ft 384 kts 300°
2026-04-30 07:46 36.70032 58.80778 21482 ft 387 kts 300°
2026-04-30 07:47 36.71536 58.78019 21898 ft 389 kts 300°
2026-04-30 07:47 36.73059 58.75222 22308 ft 393 kts 300°
2026-04-30 07:47 36.74616 58.72362 22733 ft 395 kts 300°
2026-04-30 07:47 36.76144 58.69551 23155 ft 397 kts 300°
2026-04-30 07:48 36.77708 58.66671 23607 ft 399 kts 300°
2026-04-30 07:48 36.79277 58.63781 23960 ft 402 kts 300°
2026-04-30 07:48 36.80825 58.60910 24412 ft 403 kts 299°
2026-04-30 07:48 36.82408 58.57968 24813 ft 405 kts 299°
2026-04-30 07:49 36.83986 58.55048 25205 ft 407 kts 300°
2026-04-30 07:49 36.85568 58.52129 25613 ft 408 kts 300°
2026-04-30 07:49 36.87160 58.49194 25900 ft 412 kts 300°
2026-04-30 07:49 36.88710 58.46334 26267 ft 413 kts 300°
2026-04-30 07:50 36.90307 58.43383 26626 ft 415 kts 300°
2026-04-30 07:50 36.91935 58.40374 26987 ft 416 kts 300°
2026-04-30 07:50 36.93559 58.37373 27338 ft 418 kts 300°
2026-04-30 07:50 36.95179 58.34373 27715 ft 419 kts 300°
2026-04-30 07:51 36.96820 58.31326 27950 ft 422 kts 299°
2026-04-30 07:51 36.98477 58.28241 28338 ft 422 kts 300°
2026-04-30 07:51 37.00112 58.25198 28734 ft 423 kts 300°
2026-04-30 07:51 37.01760 58.22129 28893 ft 428 kts 300°
2026-04-30 07:52 37.03423 58.19033 29281 ft 426 kts 300°
2026-04-30 07:52 37.05057 58.15983 29622 ft 427 kts 300°
2026-04-30 07:52 37.06736 58.12852 29798 ft 431 kts 300°
2026-04-30 07:52 37.08405 58.09735 30070 ft 432 kts 300°
2026-04-30 07:53 37.10060 58.06644 30415 ft 427 kts 299°
2026-04-30 07:53 37.11716 58.03566 30904 ft 421 kts 298°
2026-04-30 07:53 37.13334 58.00559 31377 ft 412 kts 297°
2026-04-30 07:53 37.14910 57.97608 31811 ft 403 kts 297°
2026-04-30 07:54 37.16460 57.94708 32396 ft 397 kts 297°
2026-04-30 07:54 37.18008 57.91805 32548 ft 402 kts 297°
2026-04-30 07:54 37.19574 57.88872 32649 ft 408 kts 297°
2026-04-30 07:55 37.22779 57.82877 32874 ft 414 kts 297°
2026-04-30 07:55 37.24371 57.79901 33143 ft 410 kts 297°
2026-04-30 07:55 37.25954 57.76937 33404 ft 404 kts 297°
2026-04-30 07:55 37.27503 57.74031 33580 ft 403 kts 296°
2026-04-30 07:56 37.29057 57.71113 33801 ft 400 kts 296°
2026-04-30 07:56 37.30602 57.68207 34012 ft 399 kts 297°
2026-04-30 07:56 37.32138 57.65317 34103 ft 399 kts 296°
2026-04-30 07:57 37.35208 57.59532 34166 ft 400 kts 296°
2026-04-30 07:57 37.38302 57.53695 34109 ft 400 kts 296°
2026-04-30 07:58 37.41394 57.47850 34153 ft 402 kts 296°
2026-04-30 07:58 37.44485 57.42000 34138 ft 400 kts 296°
2026-04-30 07:59 37.47586 57.36115 34135 ft 405 kts 296°
2026-04-30 07:59 37.50818 57.30245 34144 ft 407 kts 300°
2026-04-30 08:00 37.56004 57.21953 34134 ft 407 kts 301°
2026-04-30 08:00 37.59536 57.16299 34125 ft 409 kts 301°
2026-04-30 08:01 37.63034 57.10674 34113 ft 408 kts 300°
2026-04-30 08:01 37.66562 57.05004 34113 ft 410 kts 300°
2026-04-30 08:02 37.71826 56.96527 34084 ft 411 kts 301°
2026-04-30 08:03 37.78895 56.85115 34105 ft 411 kts 301°
2026-04-30 08:04 37.82417 56.79410 34105 ft 413 kts 301°
2026-04-30 08:04 37.85973 56.73645 34111 ft 414 kts 301°
2026-04-30 08:05 37.89502 56.67912 34128 ft 414 kts 301°
2026-04-30 08:05 37.93055 56.62131 34100 ft 413 kts 301°
2026-04-30 08:06 37.96577 56.56389 34131 ft 413 kts 301°
2026-04-30 08:06 38.00085 56.50660 34126 ft 412 kts 301°
2026-04-30 08:07 38.03627 56.44863 34124 ft 416 kts 301°
2026-04-30 08:07 38.07163 56.39070 34133 ft 414 kts 301°
2026-04-30 08:08 38.10591 56.33231 34079 ft 405 kts 291°
2026-04-30 08:08 38.12844 56.26728 34121 ft 401 kts 286°
2026-04-30 08:09 38.15047 56.20236 34110 ft 403 kts 287°
2026-04-30 08:09 38.17303 56.13701 34131 ft 402 kts 287°
2026-04-30 08:10 38.19553 56.07187 34110 ft 403 kts 287°
2026-04-30 08:10 38.21817 56.00619 34117 ft 404 kts 287°
2026-04-30 08:11 38.24071 55.94065 34102 ft 405 kts 287°
2026-04-30 08:11 38.26319 55.87519 34129 ft 405 kts 287°
2026-04-30 08:12 38.28577 55.80924 34107 ft 405 kts 287°
2026-04-30 08:12 38.30811 55.74388 34087 ft 403 kts 287°
2026-04-30 08:13 38.33044 55.67839 34118 ft 402 kts 287°
2026-04-30 08:13 38.35271 55.61290 34116 ft 404 kts 287°
2026-04-30 08:14 38.37510 55.54694 34112 ft 403 kts 287°
2026-04-30 08:14 38.39691 55.48106 34133 ft 404 kts 286°
2026-04-30 08:15 38.41288 55.43262 34114 ft 404 kts 287°
2026-04-30 08:15 38.43487 55.36618 34099 ft 408 kts 287°
2026-04-30 08:16 38.45668 55.29985 34117 ft 406 kts 286°
2026-04-30 08:16 38.47861 55.23298 34115 ft 405 kts 286°
2026-04-30 08:17 38.50027 55.16680 34120 ft 405 kts 286°
2026-04-30 08:17 38.52195 55.10044 34129 ft 405 kts 286°
2026-04-30 08:18 38.54357 55.03413 34115 ft 405 kts 286°
2026-04-30 08:18 38.56527 54.96740 34147 ft 405 kts 286°
2026-04-30 08:19 38.58693 54.90062 34089 ft 406 kts 286°
2026-04-30 08:19 38.60838 54.83437 34115 ft 404 kts 286°
2026-04-30 08:20 38.63001 54.76734 34091 ft 406 kts 286°
2026-04-30 08:20 38.65148 54.70074 34116 ft 405 kts 286°
2026-04-30 08:21 38.67292 54.63403 34131 ft 406 kts 287°
2026-04-30 08:21 38.69442 54.56693 34109 ft 408 kts 287°
2026-04-30 08:22 38.71585 54.49996 34109 ft 407 kts 287°
2026-04-30 08:22 38.73737 54.43251 34129 ft 408 kts 287°
2026-04-30 08:23 38.75874 54.36540 34144 ft 408 kts 287°
2026-04-30 08:23 38.78021 54.29767 34108 ft 407 kts 286°
2026-04-30 08:24 38.80142 54.23062 34134 ft 408 kts 287°
2026-04-30 08:24 38.82286 54.16276 34097 ft 410 kts 287°
2026-04-30 08:25 38.84425 54.09491 34141 ft 411 kts 287°
2026-04-30 08:25 38.86572 54.02667 34091 ft 410 kts 287°
2026-04-30 08:26 38.88703 53.95874 34123 ft 410 kts 287°
2026-04-30 08:26 38.90832 53.89069 34159 ft 412 kts 287°
2026-04-30 08:27 38.92965 53.82241 34128 ft 412 kts 287°
2026-04-30 08:27 38.95089 53.75422 34105 ft 410 kts 287°
2026-04-30 08:28 38.97199 53.68626 34141 ft 412 kts 287°
2026-04-30 08:28 38.99276 53.61763 34109 ft 410 kts 287°
2026-04-30 08:29 39.01342 53.54917 34116 ft 411 kts 287°
2026-04-30 08:29 39.03448 53.48098 34127 ft 410 kts 287°
2026-04-30 08:30 39.05561 53.41261 34056 ft 411 kts 287°
2026-04-30 08:30 39.07643 53.34518 34100 ft 406 kts 287°
2026-04-30 08:31 39.09724 53.27734 34120 ft 406 kts 287°
2026-04-30 08:31 39.11811 53.20991 34143 ft 405 kts 287°
2026-04-30 08:32 39.13891 53.14228 34177 ft 405 kts 287°
2026-04-30 08:32 39.15957 53.07472 34138 ft 407 kts 287°
2026-04-30 08:33 39.18016 53.00715 34166 ft 405 kts 287°
2026-04-30 08:33 39.20080 52.93925 34159 ft 405 kts 287°
2026-04-30 08:34 39.22127 52.87171 34179 ft 408 kts 287°
2026-04-30 08:34 39.24193 52.80341 34235 ft 410 kts 288°
2026-04-30 08:35 39.26258 52.73501 34161 ft 408 kts 288°
2026-04-30 08:35 39.28172 52.67140 34116 ft 408 kts 288°
2026-04-30 08:36 39.30267 52.60273 34159 ft 411 kts 288°
2026-04-30 08:36 39.32428 52.53477 34105 ft 410 kts 289°
2026-04-30 08:37 39.34606 52.46681 34175 ft 411 kts 289°
2026-04-30 08:37 39.36790 52.39857 34115 ft 409 kts 289°
2026-04-30 08:38 39.38955 52.33072 34110 ft 410 kts 289°
2026-04-30 08:38 39.41126 52.26240 34184 ft 410 kts 288°
2026-04-30 08:39 39.43288 52.19431 34160 ft 409 kts 289°
2026-04-30 08:39 39.45450 52.12609 34151 ft 409 kts 289°
2026-04-30 08:40 39.47597 52.05818 34150 ft 407 kts 289°
2026-04-30 08:40 39.49681 51.99210 34131 ft 409 kts 289°
2026-04-30 08:41 39.51819 51.92419 34148 ft 407 kts 289°
2026-04-30 08:41 39.53948 51.85633 34126 ft 408 kts 289°
2026-04-30 08:42 39.56086 51.78806 34116 ft 408 kts 289°
2026-04-30 08:42 39.58225 51.71956 34116 ft 411 kts 289°
2026-04-30 08:43 39.60368 51.65078 34188 ft 409 kts 289°
2026-04-30 08:43 39.62488 51.58256 34199 ft 408 kts 289°
2026-04-30 08:44 39.64609 51.51412 34134 ft 407 kts 289°
2026-04-30 08:44 39.66109 51.44412 34189 ft 404 kts 280°
2026-04-30 08:45 39.67383 51.37339 34182 ft 404 kts 281°
2026-04-30 08:45 39.68687 51.30344 34166 ft 403 kts 281°
2026-04-30 08:46 39.70011 51.23265 34133 ft 403 kts 281°
2026-04-30 08:46 39.71334 51.16180 34167 ft 404 kts 281°
2026-04-30 08:47 39.72646 51.09137 34196 ft 402 kts 281°
2026-04-30 08:47 39.73958 51.02064 34153 ft 401 kts 281°
2026-04-30 08:48 39.75264 50.94998 34190 ft 403 kts 281°
2026-04-30 08:48 39.76560 50.87958 34133 ft 401 kts 281°
2026-04-30 08:49 39.77861 50.80864 34192 ft 403 kts 281°
2026-04-30 08:49 39.79153 50.73803 34195 ft 401 kts 281°
2026-04-30 08:50 39.80432 50.66775 34147 ft 400 kts 281°
2026-04-30 08:50 39.81715 50.59710 34131 ft 400 kts 281°
2026-04-30 08:51 39.82988 50.52664 34178 ft 401 kts 281°
2026-04-30 08:51 39.84263 50.45584 34158 ft 400 kts 281°
2026-04-30 08:52 39.85521 50.38573 34216 ft 400 kts 281°
2026-04-30 08:52 39.86787 50.31485 34178 ft 398 kts 281°
2026-04-30 08:53 39.88028 50.24508 34146 ft 396 kts 281°
2026-04-30 08:53 39.89267 50.17520 34168 ft 397 kts 280°
2026-04-30 08:54 39.90505 50.10515 34140 ft 398 kts 281°
2026-04-30 08:54 39.91741 50.03498 34181 ft 397 kts 281°
2026-04-30 08:55 39.92977 49.96453 34119 ft 397 kts 281°
2026-04-30 08:55 39.94179 49.89572 34129 ft 397 kts 281°
2026-04-30 08:56 39.95402 49.82548 34165 ft 399 kts 281°
2026-04-30 08:56 39.96625 49.75497 34133 ft 400 kts 280°
2026-04-30 08:57 39.97848 49.68416 34209 ft 401 kts 281°
2026-04-30 08:57 39.99074 49.61295 34169 ft 400 kts 281°
2026-04-30 08:58 40.00276 49.54283 34132 ft 400 kts 281°
2026-04-30 08:58 40.01494 49.47149 34162 ft 400 kts 281°
2026-04-30 08:59 40.02699 49.40066 34132 ft 402 kts 281°
2026-04-30 08:59 40.03909 49.32922 34124 ft 402 kts 280°
2026-04-30 09:00 40.05106 49.25810 34143 ft 402 kts 280°
2026-04-30 09:00 40.05844 49.21419 34134 ft 403 kts 280°
2026-04-30 09:01 40.07042 49.14276 34125 ft 400 kts 280°
2026-04-30 09:01 40.07833 49.09544 34151 ft 399 kts 280°